[[[{"header":{"parameterUnit":"kt","parameterCategory":2,"dx":1,"dy":1,"la1":30.253999710083008,"la2":30.299108505249023,"lo1":-89.0895004272461,"lo2":-89.04439544677734,"nx":28,"ny":28,"refTime":"2022-09-27T15:00:00:Z","depth":"0","parameterNumber":2,"parameterNumberName":"U-component_of_CURRENTS"},"data":[-0.2842,-0.2914,-0.2924,-0.3022,-0.3095,-0.3057,-0.3041,-0.2988,-0.3046,-0.3157,-0.3372,-0.3561,-0.3642,-0.3686,-0.3451,-0.3216,-0.3034,-0.2907,-0.2826,-0.3053,-0.3067,-0.308,-0.3056,-0.2953,-0.2954,-0.2565,-0.2563,-0.2562,-0.2791,-0.2839,-0.2965,-0.3112,-0.3204,-0.3284,-0.3422,-0.3367,-0.3383,-0.3591,-0.3576,-0.3703,-0.3534,-0.3464,-0.3338,-0.3148,-0.3009,-0.3018,-0.2989,-0.2913,-0.3101,-0.3073,-0.2972,-0.2972,-0.2972,-0.2972,-0.2972,-0.2972,-0.2742,-0.2797,-0.291,-0.3057,-0.3223,-0.3348,-0.3376,-0.3561,-0.365,-0.371,-0.3803,-0.3777,-0.3707,-0.345,-0.3335,-0.3197,-0.3151,-0.312,-0.3159,-0.311,-0.2991,-0.3175,-0.3093,-0.3093,-0.3094,-0.3094,-0.3094,0,-0.2716,-0.2756,-0.2861,-0.3022,-0.3176,-0.3335,-0.3513,-0.3581,-0.3744,-0.3814,-0.3878,-0.3843,-0.3755,-0.3613,-0.344,-0.3347,-0.3287,-0.3306,-0.3296,-0.3272,-0.3211,-0.3111,-0.3338,-0.3295,-0.3296,-0.3297,-0.3298,-0.3299,-0.2721,-0.2751,-0.2932,-0.3036,-0.3118,-0.3268,-0.3399,-0.3535,-0.3643,-0.378,-0.3846,-0.3835,-0.3809,-0.3683,-0.3576,-0.3442,-0.3392,-0.3348,-0.3323,-0.3305,-0.3325,-0.3274,-0.3195,-0.3315,-0.3313,-0.3311,-0.331,0,-0.2737,-0.2807,-0.2922,-0.3085,-0.3151,-0.3242,-0.3454,-0.3549,-0.3617,-0.3737,-0.3754,-0.3807,-0.377,-0.3704,-0.3651,-0.3587,-0.3466,-0.3474,-0.3469,-0.3448,-0.3322,-0.335,-0.3242,-0.3143,-0.3379,-0.3377,-0.3375,0,-0.2805,-0.2871,-0.3005,-0.3049,-0.3177,-0.3299,-0.3419,-0.3502,-0.3603,-0.3699,-0.3697,-0.3746,-0.37,-0.3685,-0.3634,-0.3559,-0.3597,-0.3494,-0.3476,-0.3466,-0.3459,-0.3426,-0.345,-0.3557,-0.3557,-0.3557,-0.3557,0,-0.2826,-0.2958,-0.3029,-0.3085,-0.3261,-0.3319,-0.342,-0.3525,-0.36,-0.3646,-0.3689,-0.3677,-0.3694,-0.3648,-0.3621,-0.3616,-0.3596,-0.3586,-0.3491,-0.3487,-0.3454,-0.3445,-0.3425,-0.3557,-0.3557,-0.3557,-0.3557,0,-0.2886,-0.2954,-0.3032,-0.3207,-0.3245,-0.3316,-0.3463,-0.3532,-0.3601,-0.363,-0.3638,-0.3643,-0.3652,-0.3624,-0.3608,-0.3606,-0.3583,-0.3572,-0.3572,-0.3486,-0.3461,-0.3422,-0.3442,-0.3423,-0.356,-0.356,-0.356,0,-0.2903,-0.2978,-0.3058,-0.3163,-0.323,-0.3334,-0.3402,-0.3482,-0.3537,-0.3583,-0.3583,-0.3613,-0.3591,-0.3598,-0.3588,-0.3591,-0.358,-0.3581,-0.3539,-0.3538,-0.3444,-0.347,-0.345,-0.3446,-0.356,-0.356,-0.356,0,-0.2922,-0.3046,-0.305,-0.3107,-0.3231,-0.3301,-0.3366,-0.345,-0.3485,-0.3518,-0.3548,-0.358,-0.357,-0.3578,-0.3576,-0.357,-0.358,-0.3552,-0.3551,-0.3531,-0.3556,-0.348,-0.3473,-0.3554,-0.3554,-0.3554,-0.356,0,-0.3003,-0.3046,-0.3072,-0.314,-0.321,-0.3271,-0.3349,-0.3394,-0.3426,-0.3453,-0.3489,-0.3503,-0.3519,-0.3533,-0.3536,-0.3553,-0.3543,-0.3525,-0.348,-0.3523,-0.3524,-0.3524,-0.3511,-0.351,-0.351,-0.3509,0,0,-0.2993,-0.3039,-0.3095,-0.3134,-0.3188,-0.3244,-0.329,-0.333,-0.3388,-0.3403,-0.339,-0.3439,-0.3447,-0.3472,-0.3493,-0.351,-0.3498,-0.3482,-0.3516,-0.3517,-0.3518,-0.352,-0.3521,-0.3508,-0.3508,-0.3508,-0.3508,0,-0.3019,-0.3065,-0.3078,-0.3131,-0.3192,-0.3239,-0.3254,-0.3315,-0.3326,-0.3382,-0.3362,-0.3379,-0.3422,-0.342,-0.3427,-0.3499,-0.3456,-0.3508,-0.3526,-0.3512,-0.3514,-0.3515,-0.3518,-0.3519,-0.3506,-0.3506,-0.3506,0,-0.3025,-0.3063,-0.3073,-0.3145,-0.3174,-0.3224,-0.3216,-0.3266,-0.3297,-0.3276,-0.331,-0.3316,-0.3326,-0.3363,-0.3377,-0.3359,-0.3414,-0.341,-0.3414,-0.3408,-0.3391,-0.3394,-0.3397,-0.3352,-0.3351,-0.3351,0,0,-0.3034,-0.3063,-0.312,-0.3148,-0.3174,-0.3209,-0.3236,-0.3246,-0.3273,-0.3278,-0.3279,-0.3286,-0.3305,-0.3308,-0.3329,-0.3376,-0.3359,-0.339,-0.3397,-0.3403,-0.34,-0.3385,-0.3389,-0.3348,-0.3348,-0.3348,0,0,-0.3031,-0.3085,-0.3078,-0.3123,-0.3166,-0.3219,-0.3241,-0.3249,-0.3269,-0.3254,-0.3238,-0.3236,-0.3266,-0.327,-0.3239,-0.3302,-0.3275,-0.3282,-0.3287,-0.3296,-0.3303,-0.3289,-0.3185,0,0,0,0,0,-0.3052,-0.3085,-0.3078,-0.309,-0.3157,-0.3227,-0.3238,-0.3238,-0.3214,-0.3234,-0.3231,-0.3197,-0.3248,-0.3221,-0.3227,-0.3241,-0.3316,-0.3322,-0.3327,-0.3346,-0.3355,-0.3364,0,0,0,0,0,0,-0.3056,-0.307,-0.3078,-0.313,-0.3146,-0.3225,-0.3184,-0.3186,-0.321,-0.3204,-0.3203,-0.3198,-0.3183,-0.3216,-0.3222,-0.3235,-0.3183,-0.3318,-0.3323,-0.3327,-0.3349,-0.3357,-0.3364,0,0,0,0,0,-0.306,-0.3071,-0.3169,-0.3131,-0.3144,-0.3163,-0.318,-0.3182,-0.3195,-0.3195,-0.319,-0.3191,-0.3185,-0.3187,-0.3219,-0.3232,-0.3179,-0.3181,-0.3321,-0.3325,-0.3329,-0.3353,0,0,0,0,0,0,-0.3064,-0.3078,-0.3172,-0.3178,-0.3097,-0.3158,-0.3164,-0.3178,-0.3183,-0.3182,-0.318,-0.3175,-0.3188,-0.3189,-0.3191,-0.3232,-0.3175,-0.3178,-0.3179,-0.3324,-0.3327,-0.333,0,0,0,0,0,0,-0.3073,-0.3082,-0.3175,-0.3132,-0.3133,-0.3153,-0.3158,-0.3193,-0.3181,-0.3167,-0.3164,-0.3178,-0.3165,-0.3191,-0.3192,-0.3249,-0.3173,-0.3175,-0.3177,-0.3178,-0.3327,-0.3329,0,0,0,0,0,0,-0.3078,-0.3086,-0.3131,-0.3131,-0.3132,-0.3196,-0.3182,-0.3235,-0.3189,-0.3165,-0.318,-0.3176,-0.3166,-0.3168,-0.3193,-0.325,-0.3249,-0.3173,-0.3174,-0.3176,-0.3176,0,0,0,0,0,0,0,-0.3082,-0.3015,-0.314,-0.3131,-0.3131,-0.3232,-0.3234,-0.3235,-0.3188,-0.3185,-0.3181,-0.3178,-0.316,-0.3163,-0.3165,-0.3251,0,0,-0.3173,-0.3174,0,0,0,0,0,0,0,0,-0.3013,-0.3014,-0.314,-0.3141,-0.3142,-0.3233,-0.3234,-0.3235,-0.3188,-0.3185,-0.3182,-0.3179,-0.3161,-0.3163,-0.3165,0,0,0,0,0,0,0,0,0,0,0,0,0,0,0,-0.314,-0.3141,0,-0.3233,-0.3234,-0.3235,-0.3187,-0.3185,-0.3183,-0.318,-0.3161,-0.3163,-0.3165,0,0,0,0,0,0,0,0,0,0,0,0,0,0,0,0,0,0,0,0,0,0,0,0,0,0,0,0,0,0,0,0,0,0,0,0,0,0,0,0,0,0,0,0,0,0,0,0,0,0,0,0,0,0,0,0,0,0,0,0,0,0,0,0,0,0,0,0,0]}],[{"header":{"parameterUnit":"kt","parameterCategory":2,"dx":1,"dy":1,"la1":30.253999710083008,"la2":30.299108505249023,"lo1":-89.0895004272461,"lo2":-89.04439544677734,"nx":28,"ny":28,"refTime":"2022-09-27T15:00:00:Z","depth":"0","parameterNumber":3,"parameterNumberName":"V-component_of_CURRENTS"},"data":[-0.1325,-0.1519,-0.1644,-0.1945,-0.2067,-0.2167,-0.2179,-0.2163,-0.2101,-0.1941,-0.1744,-0.161,-0.0782,0.0392,0.097,0.0964,0.1112,0.1109,0.1206,0.0935,0.0915,0.0895,0.0891,0.1103,0.1104,0.1512,0.1516,0.152,-0.1273,-0.1414,-0.159,-0.1799,-0.1944,-0.1954,-0.1996,-0.1999,-0.1973,-0.1892,-0.1747,-0.1289,-0.0805,-0.0317,0.0327,0.0535,0.0579,0.0626,0.0761,0.0757,0.0368,0.0341,0.044,0.044,0.0439,0.0439,0.0439,0.0439,-0.1207,-0.1309,-0.1459,-0.1635,-0.1744,-0.1837,-0.187,-0.1874,-0.1845,-0.1747,-0.1554,-0.1376,-0.0861,-0.0367,-0.0162,0.0227,0.0253,0.0318,0.0432,0.053,0.0542,0.006,0.0176,0.0177,0.0177,0.0177,0.0178,0,-0.1162,-0.1218,-0.1314,-0.1488,-0.1585,-0.1656,-0.1694,-0.1698,-0.1597,-0.1524,-0.1382,-0.1242,-0.0876,-0.057,-0.0225,-0.0067,0.0219,0.0127,0.0276,0.0342,0.042,0.0446,-0.0016,0.011,0.011,0.011,0.011,0.011,-0.1111,-0.1165,-0.1291,-0.1375,-0.1419,-0.1474,-0.1507,-0.1439,-0.143,-0.1268,-0.1259,-0.1045,-0.0899,-0.0527,-0.0266,-0.0004,0.0136,0.0121,0.0107,0.0203,0.032,0.0417,0.0425,0.011,0.011,0.011,0.011,0,-0.1093,-0.1127,-0.1221,-0.1279,-0.1301,-0.135,-0.1367,-0.1359,-0.1253,-0.1207,-0.1172,-0.0962,-0.0767,-0.0551,-0.0303,-0.0179,0.0094,0.0066,-0.0021,-0.0011,0.017,0.026,0.0575,0.0605,0.0177,0.0177,0.0178,0,-0.1052,-0.1103,-0.116,-0.1203,-0.1269,-0.1254,-0.1265,-0.1219,-0.1136,-0.1104,-0.0937,-0.0864,-0.0644,-0.0497,-0.0354,-0.0168,-0.0143,-0.0049,-0.0027,-0.0073,-0.008,0.0098,0.0193,0.0005,0.0004,0.0003,0.0002,0,-0.0994,-0.1062,-0.1129,-0.1153,-0.1188,-0.1197,-0.1201,-0.1119,-0.1088,-0.0953,-0.0915,-0.0739,-0.0663,-0.0511,-0.0355,-0.0372,-0.0154,-0.0155,-0.0073,-0.0075,-0.0031,-0.0033,0.0156,0.0001,0.0001,0.0001,0.0,0,-0.0952,-0.0995,-0.1067,-0.1111,-0.1123,-0.1153,-0.1132,-0.1107,-0.0991,-0.0937,-0.0827,-0.0739,-0.0609,-0.0584,-0.0383,-0.0446,-0.0357,-0.0284,-0.0278,-0.0229,-0.0243,-0.0204,-0.0155,-0.0023,-0.0235,-0.0237,-0.0239,0,-0.0908,-0.0971,-0.0979,-0.1045,-0.1089,-0.107,-0.1054,-0.1018,-0.0968,-0.0907,-0.0781,-0.0708,-0.066,-0.0621,-0.0542,-0.0441,-0.0374,-0.045,-0.0268,-0.0262,-0.0295,-0.025,-0.0286,-0.0186,-0.0263,-0.0261,-0.0259,0,-0.0873,-0.0916,-0.0924,-0.0955,-0.0983,-0.1006,-0.0986,-0.0967,-0.0932,-0.0885,-0.0829,-0.0716,-0.0663,-0.06,-0.0541,-0.0474,-0.0415,-0.0459,-0.0452,-0.044,-0.0274,-0.0285,-0.0269,-0.0399,-0.0396,-0.0394,-0.0278,0,-0.0862,-0.0887,-0.0901,-0.0927,-0.0944,-0.0973,-0.0956,-0.0943,-0.0922,-0.0892,-0.0802,-0.0723,-0.0634,-0.0608,-0.0575,-0.0484,-0.0482,-0.046,-0.0443,-0.0424,-0.0378,-0.0363,-0.0514,-0.0513,-0.0511,-0.051,0,0,-0.0829,-0.0855,-0.085,-0.0873,-0.0895,-0.0882,-0.0913,-0.0892,-0.0879,-0.0847,-0.0844,-0.0709,-0.0649,-0.0551,-0.0549,-0.0523,-0.0489,-0.0518,-0.0438,-0.043,-0.0423,-0.0379,-0.0366,-0.0508,-0.0507,-0.0507,-0.0506,0,-0.0825,-0.0828,-0.0843,-0.0856,-0.0866,-0.0873,-0.0877,-0.0883,-0.0863,-0.0845,-0.0791,-0.0727,-0.0661,-0.0591,-0.0543,-0.0518,-0.0463,-0.05,-0.0509,-0.043,-0.0424,-0.0419,-0.0375,-0.0365,-0.0503,-0.0503,-0.0503,0,-0.0808,-0.0814,-0.0819,-0.0833,-0.0836,-0.0858,-0.0837,-0.0849,-0.0849,-0.0795,-0.0779,-0.0725,-0.0637,-0.059,-0.0558,-0.0548,-0.0444,-0.0483,-0.0487,-0.0457,-0.0372,-0.0367,-0.0361,-0.0431,-0.0431,-0.0432,0,0,-0.0804,-0.0814,-0.0821,-0.0831,-0.0837,-0.0836,-0.0842,-0.0839,-0.0822,-0.0813,-0.0776,-0.0711,-0.0648,-0.0616,-0.0558,-0.0515,-0.0457,-0.0481,-0.0484,-0.0487,-0.0461,-0.0376,-0.0371,-0.0433,-0.0433,-0.0433,0,0,-0.08,-0.0809,-0.08,-0.0817,-0.0823,-0.0829,-0.084,-0.0834,-0.0811,-0.08,-0.0745,-0.0729,-0.0674,-0.0624,-0.0653,-0.0546,-0.0522,-0.0515,-0.0604,-0.0607,-0.061,-0.0597,-0.0606,0,0,0,0,0,-0.0793,-0.0809,-0.0801,-0.0803,-0.0814,-0.0832,-0.0834,-0.0831,-0.0819,-0.0827,-0.0784,-0.0745,-0.0622,-0.0647,-0.0631,-0.0612,-0.0453,-0.0449,-0.0446,-0.0547,-0.0551,-0.0555,0,0,0,0,0,0,-0.0794,-0.0796,-0.0801,-0.0806,-0.0809,-0.0831,-0.0814,-0.0813,-0.0818,-0.0816,-0.0757,-0.0743,-0.0705,-0.0651,-0.0638,-0.0621,-0.0611,-0.0451,-0.0449,-0.0446,-0.0549,-0.0552,-0.0555,0,0,0,0,0,-0.0794,-0.0796,-0.0813,-0.0806,-0.0809,-0.0811,-0.0813,-0.0812,-0.0813,-0.076,-0.0749,-0.0811,-0.0706,-0.069,-0.0643,-0.0628,-0.062,-0.0615,-0.045,-0.0447,-0.0445,-0.055,0,0,0,0,0,0,-0.0795,-0.0795,-0.0814,-0.0815,-0.08,-0.0809,-0.081,-0.0812,-0.0755,-0.0747,-0.081,-0.0809,-0.0707,-0.0695,-0.0683,-0.0634,-0.0627,-0.0622,-0.0619,-0.0448,-0.0446,-0.0444,0,0,0,0,0,0,-0.0794,-0.0796,-0.0814,-0.0806,-0.0806,-0.0808,-0.0809,-0.076,-0.0751,-0.0806,-0.0805,-0.0809,-0.0694,-0.0698,-0.0689,-0.0616,-0.0633,-0.0628,-0.0625,-0.0623,-0.0446,-0.0445,0,0,0,0,0,0,-0.0795,-0.0796,-0.0805,-0.0805,-0.0805,-0.0815,-0.0761,-0.0753,-0.0809,-0.0806,-0.0807,-0.0806,-0.0696,-0.0688,-0.0693,-0.0625,-0.0618,-0.0633,-0.0629,-0.0627,-0.0626,0,0,0,0,0,0,0,-0.0796,-0.0785,-0.081,-0.0805,-0.0805,-0.0825,-0.0825,-0.0825,-0.0809,-0.0808,-0.0807,-0.0807,-0.066,-0.0654,-0.0649,-0.0632,0,0,-0.0633,-0.0631,0,0,0,0,0,0,0,0,-0.0784,-0.0784,-0.081,-0.081,-0.081,-0.0825,-0.0825,-0.0825,-0.0809,-0.0808,-0.0808,-0.0807,-0.0658,-0.0654,-0.065,0,0,0,0,0,0,0,0,0,0,0,0,0,0,0,-0.081,-0.081,0,-0.0825,-0.0825,-0.0825,-0.0809,-0.0808,-0.0808,-0.0807,-0.0657,-0.0654,-0.065,0,0,0,0,0,0,0,0,0,0,0,0,0,0,0,0,0,0,0,0,0,0,0,0,0,0,0,0,0,0,0,0,0,0,0,0,0,0,0,0,0,0,0,0,0,0,0,0,0,0,0,0,0,0,0,0,0,0,0,0,0,0,0,0,0,0,0,0,0]}]],[[{"header":{"parameterUnit":"kt","parameterCategory":2,"dx":1,"dy":1,"la1":30.253999710083008,"la2":30.299108505249023,"lo1":-89.0895004272461,"lo2":-89.04439544677734,"nx":28,"ny":28,"refTime":"2022-09-27T15:00:00:Z","depth":"2","parameterNumber":2,"parameterNumberName":"U-component_of_CURRENTS"},"data":[-0.2732,-0.2808,-0.2821,-0.2913,-0.2991,-0.2913,-0.2883,-0.2727,-0.2687,-0.2513,-0.2476,-0.2504,-0.2533,-0.2126,-0.1958,-0.1795,-0.1909,-0.1696,-0.2358,-0.237,-0.2409,-0.2448,-0.2355,0,0,0,0,0,-0.2677,-0.2734,-0.2863,-0.3014,-0.3095,-0.3189,-0.3321,-0.3205,-0.3139,-0.3239,-0.3147,-0.2783,-0.2564,-0.2473,-0.2233,-0.2151,-0.2107,-0.2032,-0.1992,-0.204,-0.2082,-0.1985,-0.1618,-0.1615,-0.1612,-0.161,0,0,-0.2629,-0.2682,-0.2795,-0.2948,-0.3118,-0.3246,-0.3271,-0.3422,-0.3488,-0.3461,-0.3601,-0.3431,-0.3312,-0.2898,-0.2711,-0.2582,-0.2783,-0.2649,-0.2665,-0.2686,-0.2621,-0.2592,-0.2421,-0.2424,-0.2427,-0.2429,-0.2431,0,-0.2604,-0.264,-0.2741,-0.2908,-0.3067,-0.3231,-0.3419,-0.3485,-0.3655,-0.3707,-0.3767,-0.3718,-0.3609,-0.3335,-0.3143,-0.303,-0.3035,-0.293,-0.3323,-0.2813,-0.2788,-0.2777,-0.2798,-0.2665,-0.2669,-0.2673,-0.2675,-0.2677,-0.2611,-0.2638,-0.2813,-0.2919,-0.3001,-0.316,-0.33,-0.3442,-0.3554,-0.3698,-0.3764,-0.3752,-0.371,-0.3583,-0.3447,-0.3301,-0.3367,-0.3037,-0.2984,-0.3329,-0.3316,-0.332,-0.3323,-0.2726,-0.272,-0.2715,-0.2711,0,-0.2627,-0.2693,-0.2802,-0.2964,-0.3034,-0.3128,-0.3354,-0.3455,-0.3529,-0.3655,-0.3672,-0.3727,-0.3688,-0.3622,-0.3573,-0.351,-0.344,-0.3395,-0.3176,-0.3131,-0.3339,-0.3339,-0.33,-0.3296,-0.3294,-0.3292,-0.329,0,-0.2692,-0.2757,-0.2885,-0.2927,-0.306,-0.3185,-0.3315,-0.3406,-0.3514,-0.3615,-0.3615,-0.3664,-0.3622,-0.3608,-0.3559,-0.3483,-0.3525,-0.3417,-0.3399,-0.3204,-0.3181,-0.3473,-0.3471,-0.349,-0.349,-0.349,-0.349,0,-0.2714,-0.284,-0.291,-0.2963,-0.3141,-0.3204,-0.3313,-0.3427,-0.351,-0.3562,-0.3606,-0.3595,-0.3615,-0.3572,-0.3546,-0.3543,-0.3525,-0.3517,-0.3416,-0.3411,-0.3198,-0.3173,-0.349,-0.349,-0.349,-0.349,-0.349,0,-0.2772,-0.2835,-0.2909,-0.3085,-0.3124,-0.3197,-0.3358,-0.3434,-0.3512,-0.3544,-0.3553,-0.356,-0.3571,-0.3544,-0.3532,-0.353,-0.3508,-0.35,-0.3499,-0.3406,-0.3382,-0.3151,-0.3123,-0.3489,-0.3489,-0.3489,-0.3489,0,-0.2789,-0.2858,-0.2939,-0.3042,-0.3107,-0.3218,-0.3293,-0.338,-0.3441,-0.3493,-0.3497,-0.353,-0.3508,-0.3517,-0.3509,-0.3516,-0.3505,-0.3505,-0.3468,-0.3467,-0.3366,-0.339,-0.3157,-0.3136,-0.3489,-0.3489,-0.3489,0,-0.281,-0.2928,-0.2933,-0.2988,-0.3114,-0.3186,-0.3258,-0.335,-0.3391,-0.3427,-0.3462,-0.3496,-0.3486,-0.3497,-0.3497,-0.3493,-0.3505,-0.3477,-0.3476,-0.3457,-0.3486,-0.3401,-0.3393,-0.3482,-0.3482,-0.3482,-0.3488,0,-0.2888,-0.293,-0.2955,-0.3024,-0.3096,-0.3156,-0.324,-0.3292,-0.3331,-0.3361,-0.3401,-0.3418,-0.3438,-0.3452,-0.3457,-0.3477,-0.3468,-0.3451,-0.3407,-0.3449,-0.3451,-0.3451,-0.3436,-0.3435,-0.3435,-0.3434,0,0,-0.2883,-0.2928,-0.2987,-0.3024,-0.3079,-0.314,-0.3187,-0.3232,-0.3295,-0.3314,-0.3302,-0.3358,-0.3366,-0.3395,-0.3417,-0.3434,-0.3424,-0.3407,-0.3443,-0.3444,-0.3445,-0.3447,-0.3448,-0.3433,-0.3433,-0.3433,-0.3433,0,-0.291,-0.2958,-0.2971,-0.3024,-0.3086,-0.3137,-0.3152,-0.3218,-0.3234,-0.3293,-0.3278,-0.3296,-0.3343,-0.3344,-0.3352,-0.3423,-0.3383,-0.3433,-0.345,-0.3438,-0.344,-0.3442,-0.3444,-0.3446,-0.3431,-0.3431,-0.3431,0,-0.292,-0.296,-0.297,-0.3043,-0.3074,-0.3125,-0.3121,-0.3173,-0.3207,-0.319,-0.3229,-0.3238,-0.325,-0.3289,-0.3304,-0.3286,-0.3341,-0.3337,-0.3341,-0.3334,-0.332,-0.3323,-0.3326,-0.328,-0.3279,-0.3279,0,0,-0.2931,-0.296,-0.3019,-0.3047,-0.3073,-0.3113,-0.3142,-0.3154,-0.3185,-0.3193,-0.3197,-0.3208,-0.3229,-0.3234,-0.3256,-0.3303,-0.3287,-0.3317,-0.3324,-0.333,-0.3326,-0.3314,-0.3318,-0.3276,-0.3276,-0.3276,0,0,-0.2929,-0.2986,-0.298,-0.3025,-0.3069,-0.3126,-0.3149,-0.316,-0.3185,-0.3173,-0.3161,-0.3159,-0.3191,-0.3195,-0.3165,-0.323,-0.3203,-0.321,-0.3215,-0.3224,-0.3231,-0.3216,-0.3114,0,0,0,0,0,-0.2951,-0.2984,-0.2979,-0.2991,-0.3063,-0.3132,-0.3144,-0.315,-0.313,-0.3151,-0.3153,-0.312,-0.3176,-0.3149,-0.3155,-0.3169,-0.3245,-0.325,-0.3256,-0.3274,-0.3283,-0.3291,0,0,0,0,0,0,-0.2956,-0.297,-0.2979,-0.3035,-0.3052,-0.3131,-0.3096,-0.31,-0.3127,-0.3121,-0.3126,-0.3121,-0.3109,-0.3144,-0.315,-0.3163,-0.3112,-0.3247,-0.3252,-0.3256,-0.3277,-0.3285,-0.3292,0,0,0,0,0,-0.296,-0.2971,-0.3074,-0.3035,-0.305,-0.3075,-0.3093,-0.3095,-0.3113,-0.3115,-0.3111,-0.3112,-0.3111,-0.3113,-0.3147,-0.316,-0.3107,-0.311,-0.325,-0.3254,-0.3257,-0.3281,0,0,0,0,0,0,-0.2964,-0.2982,-0.3079,-0.3085,-0.3002,-0.307,-0.3077,-0.3091,-0.3104,-0.3103,-0.3099,-0.3094,-0.3114,-0.3115,-0.3117,-0.316,-0.3104,-0.3106,-0.3108,-0.3253,-0.3256,-0.3258,0,0,0,0,0,0,-0.2977,-0.2987,-0.3082,-0.3039,-0.304,-0.3065,-0.3071,-0.3106,-0.3101,-0.3086,-0.3084,-0.3096,-0.3087,-0.3117,-0.3118,-0.3176,-0.3101,-0.3103,-0.3105,-0.3106,-0.3255,-0.3258,0,0,0,0,0,0,-0.2982,-0.2991,-0.3037,-0.3038,-0.304,-0.3111,-0.3094,-0.3151,-0.3112,-0.3084,-0.3104,-0.31,-0.3088,-0.3091,-0.3119,-0.3177,-0.3176,-0.3101,-0.3103,-0.3104,-0.3105,0,0,0,0,0,0,0,-0.2986,-0.2914,-0.3041,-0.3038,-0.3039,-0.3144,-0.3145,-0.3147,-0.3111,-0.3108,-0.3105,-0.3101,-0.3088,-0.309,-0.3093,-0.3177,0,0,-0.3101,-0.3102,0,0,0,0,0,0,0,0,-0.2912,-0.2914,-0.3041,-0.3043,-0.3044,-0.3144,-0.3145,-0.3147,-0.3111,-0.3108,-0.3105,-0.3103,-0.3089,-0.3091,-0.3093,0,0,0,0,0,0,0,0,0,0,0,0,0,0,0,-0.3041,-0.3042,0,-0.3144,-0.3145,-0.3146,-0.311,-0.3108,-0.3106,-0.3104,-0.3089,-0.3091,-0.3093,0,0,0,0,0,0,0,0,0,0,0,0,0,0,0,0,0,0,0,0,0,0,0,0,0,0,0,0,0,0,0,0,0,0,0,0,0,0,0,0,0,0,0,0,0,0,0,0,0,0,0,0,0,0,0,0,0,0,0,0,0,0,0,0,0,0,0,0,0]}],[{"header":{"parameterUnit":"kt","parameterCategory":2,"dx":1,"dy":1,"la1":30.253999710083008,"la2":30.299108505249023,"lo1":-89.0895004272461,"lo2":-89.04439544677734,"nx":28,"ny":28,"refTime":"2022-09-27T15:00:00:Z","depth":"2","parameterNumber":3,"parameterNumberName":"V-component_of_CURRENTS"},"data":[-0.1223,-0.1416,-0.1538,-0.1832,-0.1957,-0.2032,-0.2036,-0.1957,-0.184,-0.1677,-0.1509,-0.1256,-0.0765,-0.0409,-0.0018,0.0244,0.0251,0.0265,0.0139,0.0064,0.0055,0.0315,0.025,0,0,0,0,0,-0.1166,-0.1311,-0.1488,-0.1699,-0.1835,-0.1853,-0.1892,-0.1857,-0.1806,-0.1673,-0.1504,-0.1107,-0.071,-0.0328,0.0125,0.0393,0.0401,0.0446,0.0427,0.042,0.0414,0.0381,0.0481,0.0482,0.0483,0.0484,0,0,-0.1096,-0.12,-0.135,-0.1529,-0.164,-0.1733,-0.1765,-0.176,-0.1726,-0.1585,-0.1422,-0.1184,-0.0803,-0.0323,-0.0005,0.0277,0.0237,0.0332,0.0329,0.0327,0.0289,0.0234,0.0363,0.0363,0.0363,0.0363,0.0363,0,-0.1045,-0.1101,-0.1199,-0.1376,-0.1477,-0.1553,-0.1596,-0.1599,-0.1502,-0.1425,-0.1281,-0.1139,-0.0763,-0.0432,-0.0084,0.0074,0.0214,0.0272,0.0236,0.0227,0.017,0.0174,0.016,0.0295,0.0294,0.0294,0.0294,0.0294,-0.0989,-0.1043,-0.1174,-0.126,-0.1307,-0.137,-0.1407,-0.1344,-0.1337,-0.1176,-0.1165,-0.095,-0.08,-0.0427,-0.0155,0.0112,0.0124,0.0257,0.0248,0.0154,0.0162,0.0147,0.0133,0.0289,0.029,0.029,0.029,0,-0.0967,-0.1001,-0.1099,-0.1163,-0.1188,-0.1243,-0.1267,-0.1264,-0.116,-0.1116,-0.1081,-0.087,-0.0672,-0.0456,-0.0205,-0.008,0.0108,0.0167,0.0114,0.013,0.0136,0.0122,0.0278,0.0279,0.028,0.0281,0.0281,0,-0.0922,-0.0977,-0.1035,-0.1079,-0.1155,-0.1142,-0.1163,-0.1122,-0.1042,-0.1012,-0.0846,-0.0773,-0.0551,-0.0402,-0.0256,-0.0067,-0.0043,0.0055,0.0079,0.0062,0.0058,0.0058,0.0051,0.0108,0.0107,0.0106,0.0105,0,-0.0859,-0.0929,-0.1001,-0.1026,-0.1064,-0.108,-0.1089,-0.1013,-0.0987,-0.0856,-0.0818,-0.0646,-0.0569,-0.0416,-0.0255,-0.0271,-0.0052,-0.0049,0.0034,0.0033,0.0105,0.0105,0.0104,0.0104,0.0104,0.0103,0.0103,0,-0.081,-0.0853,-0.093,-0.0979,-0.0993,-0.1027,-0.1016,-0.0997,-0.0885,-0.0833,-0.0727,-0.0637,-0.0511,-0.0482,-0.0282,-0.0342,-0.0251,-0.0175,-0.0169,-0.012,-0.0126,-0.0055,-0.0005,-0.0116,-0.0118,-0.012,-0.0122,0,-0.0762,-0.0826,-0.0832,-0.0904,-0.0949,-0.0931,-0.0922,-0.089,-0.0844,-0.0789,-0.0666,-0.0597,-0.0548,-0.051,-0.0432,-0.0328,-0.0263,-0.0337,-0.0151,-0.0145,-0.0176,-0.0137,-0.0141,-0.0037,-0.0146,-0.0143,-0.0142,0,-0.0722,-0.076,-0.0768,-0.0801,-0.0828,-0.0852,-0.084,-0.0827,-0.0798,-0.0753,-0.0705,-0.0599,-0.0544,-0.0485,-0.0425,-0.0359,-0.0303,-0.0339,-0.0332,-0.0319,-0.016,-0.0171,-0.0156,-0.0283,-0.028,-0.0278,-0.0161,0,-0.0703,-0.0727,-0.0741,-0.0767,-0.0785,-0.0813,-0.0799,-0.079,-0.0773,-0.0745,-0.0663,-0.0587,-0.0503,-0.0478,-0.0446,-0.0361,-0.0356,-0.0331,-0.0311,-0.0297,-0.0249,-0.0235,-0.0378,-0.0377,-0.0375,-0.0374,0,0,-0.0668,-0.0693,-0.0683,-0.0705,-0.0728,-0.0712,-0.0746,-0.0727,-0.0717,-0.0689,-0.0686,-0.0561,-0.0503,-0.0415,-0.0415,-0.0388,-0.0352,-0.0384,-0.0308,-0.0302,-0.0295,-0.0249,-0.0237,-0.0371,-0.0371,-0.037,-0.037,0,-0.0661,-0.066,-0.0676,-0.0687,-0.0694,-0.0701,-0.0705,-0.0711,-0.0696,-0.0683,-0.0632,-0.0572,-0.0511,-0.0446,-0.0401,-0.0381,-0.0324,-0.0363,-0.0378,-0.0299,-0.0295,-0.029,-0.0245,-0.0235,-0.0366,-0.0367,-0.0367,0,-0.0642,-0.0645,-0.0649,-0.0659,-0.0662,-0.0685,-0.0662,-0.0674,-0.0678,-0.0623,-0.0616,-0.0564,-0.048,-0.0438,-0.0409,-0.0398,-0.0302,-0.0339,-0.0344,-0.0316,-0.0232,-0.0227,-0.0223,-0.0281,-0.0282,-0.0282,0,0,-0.0637,-0.0645,-0.0648,-0.0657,-0.0662,-0.066,-0.0666,-0.0664,-0.0648,-0.0641,-0.0607,-0.0548,-0.0489,-0.046,-0.0405,-0.0366,-0.0307,-0.0335,-0.0339,-0.0343,-0.0319,-0.0236,-0.0231,-0.0283,-0.0283,-0.0283,0,0,-0.0633,-0.0637,-0.0628,-0.0643,-0.0647,-0.0651,-0.0662,-0.0657,-0.0638,-0.063,-0.0578,-0.0562,-0.0513,-0.0464,-0.0491,-0.0393,-0.0367,-0.0361,-0.0452,-0.0456,-0.0459,-0.0449,-0.0445,0,0,0,0,0,-0.0621,-0.0636,-0.0628,-0.063,-0.0639,-0.0652,-0.0654,-0.0654,-0.0644,-0.0653,-0.0615,-0.0577,-0.0463,-0.0486,-0.0471,-0.0456,-0.0301,-0.0298,-0.0295,-0.04,-0.0405,-0.0408,0,0,0,0,0,0,-0.0622,-0.0623,-0.0628,-0.0631,-0.0634,-0.0651,-0.0637,-0.0638,-0.0644,-0.0642,-0.0588,-0.0575,-0.0539,-0.049,-0.0477,-0.0464,-0.045,-0.03,-0.0297,-0.0295,-0.0401,-0.0405,-0.0409,0,0,0,0,0,-0.0622,-0.0624,-0.0635,-0.0632,-0.0633,-0.0636,-0.0637,-0.0637,-0.0641,-0.0589,-0.0579,-0.064,-0.054,-0.0525,-0.0482,-0.0471,-0.0458,-0.0454,-0.0298,-0.0296,-0.0294,-0.0403,0,0,0,0,0,0,-0.0623,-0.0624,-0.0636,-0.0637,-0.0626,-0.0636,-0.0636,-0.0636,-0.0585,-0.0578,-0.0636,-0.0635,-0.0541,-0.0529,-0.0518,-0.0477,-0.0465,-0.0461,-0.0458,-0.0296,-0.0295,-0.0293,0,0,0,0,0,0,-0.0624,-0.0625,-0.0636,-0.0629,-0.0629,-0.0635,-0.0635,-0.0588,-0.0581,-0.0634,-0.0633,-0.0636,-0.0528,-0.0532,-0.0523,-0.0452,-0.0471,-0.0466,-0.0463,-0.0461,-0.0295,-0.0294,0,0,0,0,0,0,-0.0625,-0.0626,-0.0629,-0.0629,-0.0629,-0.064,-0.0589,-0.0579,-0.0637,-0.0633,-0.0636,-0.0635,-0.0529,-0.0521,-0.0527,-0.0461,-0.0454,-0.0471,-0.0468,-0.0465,-0.0464,0,0,0,0,0,0,0,-0.0625,-0.0616,-0.0631,-0.0629,-0.0629,-0.0646,-0.0646,-0.0647,-0.0637,-0.0637,-0.0636,-0.0635,-0.0497,-0.0492,-0.0487,-0.0467,0,0,-0.0471,-0.0469,0,0,0,0,0,0,0,0,-0.0616,-0.0616,-0.0631,-0.0631,-0.0631,-0.0646,-0.0646,-0.0646,-0.0637,-0.0637,-0.0636,-0.0636,-0.0495,-0.0491,-0.0487,0,0,0,0,0,0,0,0,0,0,0,0,0,0,0,-0.0631,-0.0631,0,-0.0646,-0.0646,-0.0646,-0.0637,-0.0637,-0.0636,-0.0636,-0.0494,-0.0491,-0.0488,0,0,0,0,0,0,0,0,0,0,0,0,0,0,0,0,0,0,0,0,0,0,0,0,0,0,0,0,0,0,0,0,0,0,0,0,0,0,0,0,0,0,0,0,0,0,0,0,0,0,0,0,0,0,0,0,0,0,0,0,0,0,0,0,0,0,0,0,0]}]],[[{"header":{"parameterUnit":"kt","parameterCategory":2,"dx":1,"dy":1,"la1":30.253999710083008,"la2":30.299108505249023,"lo1":-89.0895004272461,"lo2":-89.04439544677734,"nx":28,"ny":28,"refTime":"2022-09-27T15:00:00:Z","depth":"4","parameterNumber":2,"parameterNumberName":"U-component_of_CURRENTS"},"data":[-0.1341,-0.1215,-0.1134,-0.084,-0.0683,-0.0556,-0.0549,-0.0585,-0.0542,-0.0665,-0.0828,-0.0973,-0.1261,-0.1256,-0.1545,-0.1596,-0.1795,-0.1981,-0.1979,-0.2394,-0.2422,-0.2447,-0.2422,0,0,0,0,0,-0.1491,-0.1341,-0.1204,-0.1011,-0.0957,-0.0881,-0.0805,-0.0809,-0.0857,-0.0818,-0.0979,-0.1043,-0.1309,-0.1405,-0.1566,-0.1637,-0.2078,-0.1808,-0.215,-0.2412,-0.2443,-0.2408,0,0,0,0,0,0,-0.1617,-0.1546,-0.1482,-0.1326,-0.1227,-0.1073,-0.1052,-0.0956,-0.0984,-0.1242,-0.1039,-0.142,-0.1565,-0.1778,-0.1725,-0.1901,-0.2073,-0.2121,-0.2165,-0.2197,-0.212,-0.2002,-0.1635,0,0,0,0,0,-0.1701,-0.1734,-0.1712,-0.1553,-0.1461,-0.1356,-0.1234,-0.1228,-0.1306,-0.1588,-0.1567,-0.1776,-0.1842,-0.2023,-0.2105,-0.2138,-0.2553,-0.2401,-0.2426,-0.2706,-0.2661,-0.2657,-0.2678,-0.256,-0.2564,-0.2566,-0.2568,0,-0.1776,-0.1791,-0.1793,-0.1713,-0.172,-0.1638,-0.1563,-0.1706,-0.1674,-0.1881,-0.188,-0.2136,-0.2324,-0.2253,-0.2411,-0.2533,-0.2516,-0.2476,-0.2773,-0.2712,-0.2698,-0.2711,-0.2723,-0.2593,-0.2591,-0.2589,-0.2587,0,-0.1803,-0.1868,-0.187,-0.1901,-0.1869,-0.1813,-0.1785,-0.1785,-0.2049,-0.213,-0.2285,-0.2623,-0.269,-0.2896,-0.2914,-0.2896,-0.2845,-0.2735,-0.2915,-0.2901,-0.2766,-0.2768,-0.2634,-0.2624,-0.2617,-0.261,-0.2605,0,-0.1879,-0.1887,-0.1954,-0.1965,-0.1896,-0.1946,-0.191,-0.1987,-0.2174,-0.2194,-0.2683,-0.2753,-0.3101,-0.3101,-0.3138,-0.3013,-0.3111,-0.3034,-0.3003,-0.3284,-0.3284,-0.3245,-0.324,-0.329,-0.3291,-0.3292,-0.3292,0,-0.191,-0.1977,-0.1991,-0.201,-0.204,-0.203,-0.2008,-0.2106,-0.2161,-0.2499,-0.2673,-0.2926,-0.3107,-0.3169,-0.318,-0.3278,-0.3167,-0.3312,-0.3063,-0.3046,-0.3247,-0.3241,-0.3293,-0.3293,-0.3293,-0.3294,-0.3294,0,-0.1988,-0.2018,-0.2066,-0.2057,-0.2053,-0.2077,-0.2066,-0.2129,-0.2324,-0.2471,-0.271,-0.2918,-0.3147,-0.3182,-0.3283,-0.3294,-0.3282,-0.3299,-0.3296,-0.3037,-0.3005,-0.3067,-0.3236,-0.3237,-0.3237,-0.3237,-0.3237,0,-0.1976,-0.204,-0.206,-0.2097,-0.21,-0.2112,-0.217,-0.2232,-0.2336,-0.2485,-0.2715,-0.2943,-0.301,-0.3161,-0.3209,-0.3302,-0.3299,-0.3314,-0.3245,-0.3242,-0.2931,-0.3025,-0.3326,-0.3239,-0.3239,-0.3239,-0.3239,0,-0.1931,-0.2008,-0.2016,-0.2012,-0.2066,-0.2061,-0.2163,-0.2202,-0.2251,-0.2453,-0.2583,-0.287,-0.2965,-0.3075,-0.3221,-0.3256,-0.3296,-0.3252,-0.325,-0.3114,-0.329,-0.3056,-0.3032,-0.3322,-0.3323,-0.3324,-0.324,0,-0.1896,-0.1936,-0.1976,-0.1996,-0.2017,-0.2065,-0.2102,-0.2164,-0.2233,-0.2295,-0.2535,-0.2689,-0.2864,-0.3008,-0.304,-0.3228,-0.3192,-0.3199,-0.3058,-0.3213,-0.3166,-0.3166,-0.3149,-0.3148,-0.3146,-0.3145,0,0,-0.1814,-0.1834,-0.1834,-0.1876,-0.1884,-0.1904,-0.1933,-0.2013,-0.2108,-0.2147,-0.2169,-0.2519,-0.2627,-0.2847,-0.2929,-0.3028,-0.3006,-0.3008,-0.3189,-0.3194,-0.3199,-0.3158,-0.3159,-0.3143,-0.3142,-0.3142,-0.3141,0,-0.175,-0.1763,-0.18,-0.1826,-0.1865,-0.1856,-0.1891,-0.1937,-0.1978,-0.2121,-0.2155,-0.2306,-0.2552,-0.2626,-0.2713,-0.2982,-0.2946,-0.3131,-0.3162,-0.3177,-0.3185,-0.3191,-0.3152,-0.3154,-0.3138,-0.3138,-0.3138,0,-0.1654,-0.1655,-0.1675,-0.17,-0.173,-0.1759,-0.1728,-0.1797,-0.1852,-0.1846,-0.1983,-0.2094,-0.2228,-0.2426,-0.2535,-0.2483,-0.2815,-0.2808,-0.2822,-0.2768,-0.2775,-0.2787,-0.2799,-0.2624,-0.2622,-0.2619,0,0,-0.1605,-0.1634,-0.1624,-0.1684,-0.1693,-0.1721,-0.1757,-0.1745,-0.1789,-0.1812,-0.1879,-0.2,-0.2148,-0.2223,-0.235,-0.2568,-0.2512,-0.2738,-0.2762,-0.2782,-0.274,-0.2753,-0.2768,-0.261,-0.261,-0.261,0,0,-0.1576,-0.1559,-0.1553,-0.1596,-0.1625,-0.1634,-0.1684,-0.1695,-0.1762,-0.1771,-0.1793,-0.181,-0.2014,-0.2075,-0.1939,-0.236,-0.2272,-0.2302,-0.2278,-0.231,-0.2334,-0.2231,-0.1893,0,0,0,0,0,-0.152,-0.1564,-0.1561,-0.1567,-0.1608,-0.1654,-0.1664,-0.1634,-0.1639,-0.167,-0.1709,-0.172,-0.1997,-0.1874,-0.1917,-0.2095,-0.249,-0.2511,-0.2532,-0.2558,-0.259,-0.2618,0,0,0,0,0,0,-0.1523,-0.1528,-0.156,-0.1567,-0.1577,-0.1651,-0.157,-0.1566,-0.1629,-0.1618,-0.171,-0.1721,-0.1709,-0.1857,-0.1895,-0.2065,-0.1881,-0.2499,-0.2517,-0.2533,-0.2569,-0.2596,-0.2618,0,0,0,0,0,-0.1524,-0.1529,-0.1585,-0.1568,-0.1577,-0.1561,-0.1565,-0.156,-0.162,-0.1648,-0.1656,-0.1595,-0.1712,-0.1744,-0.188,-0.2048,-0.1856,-0.1869,-0.251,-0.2524,-0.2537,-0.2582,0,0,0,0,0,0,-0.1526,-0.1545,-0.1588,-0.1593,-0.1513,-0.1556,-0.1554,-0.1556,-0.1648,-0.1654,-0.1529,-0.1519,-0.1715,-0.174,-0.1765,-0.2041,-0.1835,-0.1849,-0.1858,-0.2521,-0.2532,-0.2542,0,0,0,0,0,0,-0.1542,-0.1548,-0.1591,-0.1522,-0.1518,-0.1551,-0.1549,-0.171,-0.1654,-0.1526,-0.1518,-0.1524,-0.1705,-0.1738,-0.1757,-0.2009,-0.182,-0.1833,-0.1842,-0.1848,-0.253,-0.2539,0,0,0,0,0,0,-0.1546,-0.1551,-0.152,-0.1518,-0.1514,-0.1563,-0.1699,-0.1759,-0.1532,-0.1526,-0.1517,-0.151,-0.1706,-0.1724,-0.1752,-0.1995,-0.2005,-0.182,-0.1829,-0.1835,-0.184,0,0,0,0,0,0,0,-0.1548,-0.1503,-0.1559,-0.1514,-0.1511,-0.1632,-0.1634,-0.1635,-0.1531,-0.1525,-0.1519,-0.1513,-0.1744,-0.1758,-0.1773,-0.1984,0,0,-0.1819,-0.1825,0,0,0,0,0,0,0,0,-0.1502,-0.1503,-0.1559,-0.156,-0.156,-0.1632,-0.1634,-0.1635,-0.153,-0.1525,-0.152,-0.1516,-0.1748,-0.176,-0.1771,0,0,0,0,0,0,0,0,0,0,0,0,0,0,0,-0.1559,-0.156,0,-0.1632,-0.1633,-0.1634,-0.1529,-0.1525,-0.1521,-0.1517,-0.1751,-0.1761,-0.1771,0,0,0,0,0,0,0,0,0,0,0,0,0,0,0,0,0,0,0,0,0,0,0,0,0,0,0,0,0,0,0,0,0,0,0,0,0,0,0,0,0,0,0,0,0,0,0,0,0,0,0,0,0,0,0,0,0,0,0,0,0,0,0,0,0,0,0,0,0]}],[{"header":{"parameterUnit":"kt","parameterCategory":2,"dx":1,"dy":1,"la1":30.253999710083008,"la2":30.299108505249023,"lo1":-89.0895004272461,"lo2":-89.04439544677734,"nx":28,"ny":28,"refTime":"2022-09-27T15:00:00:Z","depth":"4","parameterNumber":3,"parameterNumberName":"V-component_of_CURRENTS"},"data":[-0.0721,-0.0788,-0.0802,-0.0876,-0.0928,-0.1039,-0.1121,-0.1172,-0.1113,-0.1159,-0.0978,-0.0961,-0.0636,-0.0854,-0.0353,-0.0294,-0.0144,0.0075,0.008,0.0299,0.0299,0.0299,0.0209,0,0,0,0,0,-0.0713,-0.0744,-0.0818,-0.0899,-0.1012,-0.1056,-0.1162,-0.1213,-0.1281,-0.1229,-0.126,-0.1037,-0.0739,-0.061,-0.0369,-0.0342,0.0004,-0.0054,0.0128,0.0299,0.0299,0.0212,0,0,0,0,0,0,-0.0689,-0.0747,-0.0821,-0.0891,-0.1004,-0.1082,-0.1147,-0.1173,-0.1253,-0.1303,-0.1257,-0.1077,-0.0929,-0.0589,-0.0394,-0.0167,-0.0042,0.0057,0.007,0.0073,-0.0032,-0.0133,-0.0096,0,0,0,0,0,-0.0655,-0.0703,-0.0785,-0.087,-0.0957,-0.1066,-0.1145,-0.1214,-0.1308,-0.1374,-0.1306,-0.1144,-0.0874,-0.0527,-0.0324,-0.0079,0.0113,0.0158,0.0163,0.0246,0.0195,0.0232,0.0224,0.0301,0.0301,0.0301,0.0301,0,-0.0598,-0.0657,-0.0785,-0.0838,-0.0887,-0.0997,-0.1071,-0.119,-0.1251,-0.1319,-0.1288,-0.1132,-0.0986,-0.0574,-0.0307,0.0029,0.0067,0.0156,0.0243,0.0194,0.0234,0.0225,0.0217,0.0302,0.0302,0.0302,0.0301,0,-0.0572,-0.0616,-0.0724,-0.0829,-0.0858,-0.0938,-0.1062,-0.1159,-0.1227,-0.127,-0.1252,-0.1118,-0.0862,-0.0609,-0.0287,-0.0117,0.0093,0.0138,0.0035,0.0077,0.0223,0.0214,0.0302,0.0302,0.0302,0.0302,0.0302,0,-0.0533,-0.0604,-0.0677,-0.0724,-0.0836,-0.0864,-0.099,-0.1036,-0.1099,-0.1148,-0.1052,-0.1012,-0.0673,-0.0504,-0.0304,-0.0057,-0.0038,0.0125,0.0173,0.0137,0.013,0.0268,0.0275,0.0196,0.0195,0.0194,0.0194,0,-0.0463,-0.0558,-0.0641,-0.0665,-0.0739,-0.0793,-0.083,-0.0886,-0.095,-0.0944,-0.0956,-0.0798,-0.0674,-0.0488,-0.0254,-0.0218,-0.0007,0.0079,0.0146,0.0146,0.0265,0.0274,0.0193,0.0192,0.0192,0.0192,0.0191,0,-0.0411,-0.0454,-0.0557,-0.0629,-0.0642,-0.0697,-0.0767,-0.0815,-0.0816,-0.0816,-0.0754,-0.0648,-0.0535,-0.0439,-0.0205,-0.0242,-0.0127,-0.0017,-0.0009,0.0085,0.0147,0.0263,0.0102,0.0101,0.01,0.0099,0.0098,0,-0.0335,-0.0417,-0.0397,-0.0495,-0.0527,-0.0489,-0.0557,-0.0564,-0.0563,-0.0575,-0.0458,-0.0454,-0.0347,-0.0331,-0.0262,-0.0108,-0.0083,-0.0141,0.0152,0.0161,0.0169,0.0027,-0.0044,0.008,0.0083,0.0084,0.0085,0,-0.0239,-0.0255,-0.0263,-0.0291,-0.0274,-0.0284,-0.0344,-0.0355,-0.041,-0.0347,-0.0372,-0.034,-0.0257,-0.0214,-0.0145,-0.0095,-0.0104,0.0004,0.0014,0.0076,0.0042,0.0011,0.0019,-0.005,-0.0048,-0.0047,0.0073,0,-0.0157,-0.017,-0.0193,-0.0187,-0.0187,-0.0211,-0.0174,-0.0188,-0.0154,-0.0129,-0.0135,-0.0049,0.0004,-0.0012,0.0044,0.0025,0.0085,0.015,0.0293,0.0156,0.0222,0.0229,0.0209,0.0214,0.0218,0.0222,0,0,-0.0061,-0.0059,0.0017,-0.0009,-0.0014,0.0074,0.0031,0.0046,0.0086,0.008,0.0131,0.0186,0.0256,0.024,0.0176,0.02,0.0269,0.0278,0.0195,0.019,0.0187,0.0244,0.0247,0.0229,0.0231,0.0232,0.0234,0,-0.0003,0.0055,0.0033,0.0047,0.0081,0.0122,0.0113,0.0166,0.0186,0.0168,0.025,0.0266,0.033,0.0372,0.0405,0.0255,0.0433,0.0257,0.0156,0.0226,0.0216,0.0208,0.026,0.026,0.0244,0.0243,0.0243,0,0.0088,0.0133,0.0135,0.0186,0.0215,0.0199,0.0297,0.0301,0.0277,0.0432,0.0409,0.0469,0.056,0.0538,0.0545,0.061,0.0585,0.0578,0.0557,0.0614,0.0699,0.0684,0.0671,0.0851,0.0852,0.0854,0,0,0.0131,0.0142,0.021,0.0203,0.0217,0.0281,0.0295,0.0341,0.0387,0.041,0.0488,0.0555,0.0589,0.0621,0.0678,0.0666,0.0777,0.0645,0.0617,0.0593,0.0634,0.0712,0.0696,0.0859,0.0859,0.0859,0,0,0.015,0.0226,0.0261,0.0271,0.0297,0.0369,0.0361,0.0408,0.045,0.0461,0.0593,0.0622,0.0618,0.0706,0.0753,0.0726,0.0851,0.0844,0.0662,0.0629,0.0601,0.0637,0.0928,0,0,0,0,0,0.0224,0.0212,0.0241,0.0251,0.033,0.0347,0.0358,0.0431,0.0471,0.0465,0.0524,0.0651,0.0739,0.0784,0.0812,0.0763,0.0924,0.0913,0.0902,0.0666,0.0629,0.0598,0,0,0,0,0,0,0.0228,0.0241,0.0241,0.0311,0.0329,0.0349,0.0436,0.0457,0.0474,0.0487,0.0627,0.0655,0.0756,0.0782,0.0805,0.0754,0.0921,0.092,0.091,0.0901,0.0654,0.0623,0.0597,0,0,0,0,0,0.0232,0.0242,0.0352,0.0312,0.0328,0.0414,0.0439,0.0457,0.0479,0.0615,0.0643,0.0531,0.0752,0.078,0.0797,0.0739,0.0907,0.0915,0.0913,0.0906,0.0899,0.0639,0,0,0,0,0,0,0.0235,0.0267,0.0357,0.0364,0.0331,0.0415,0.0432,0.0456,0.061,0.0633,0.0527,0.0536,0.0749,0.0771,0.0791,0.0724,0.0896,0.0903,0.0908,0.0907,0.0901,0.0896,0,0,0,0,0,0,0.0261,0.0272,0.0361,0.038,0.039,0.0415,0.0431,0.0502,0.0614,0.0517,0.0526,0.053,0.0742,0.0765,0.0781,0.0887,0.0887,0.0894,0.0899,0.0903,0.0902,0.0898,0,0,0,0,0,0,0.0267,0.0277,0.0379,0.0387,0.0396,0.0482,0.0484,0.0579,0.057,0.0511,0.0577,0.058,0.0735,0.0752,0.0773,0.0872,0.0883,0.0887,0.0892,0.0896,0.0898,0,0,0,0,0,0,0,0.0272,0.0192,0.031,0.0392,0.0401,0.0424,0.0427,0.0429,0.057,0.0573,0.0576,0.0578,0.0844,0.0852,0.0861,0.0859,0,0,0.0886,0.089,0,0,0,0,0,0,0,0,0.0189,0.0191,0.031,0.0311,0.0312,0.0425,0.0427,0.0429,0.0571,0.0573,0.0575,0.0577,0.0846,0.0853,0.086,0,0,0,0,0,0,0,0,0,0,0,0,0,0,0,0.031,0.0311,0,0.0425,0.0427,0.0428,0.0571,0.0573,0.0575,0.0576,0.0848,0.0854,0.0859,0,0,0,0,0,0,0,0,0,0,0,0,0,0,0,0,0,0,0,0,0,0,0,0,0,0,0,0,0,0,0,0,0,0,0,0,0,0,0,0,0,0,0,0,0,0,0,0,0,0,0,0,0,0,0,0,0,0,0,0,0,0,0,0,0,0,0,0,0]}]]]